Weather History for Boulder City, NV

Change the Weather History Date:

Monday, April 7, 2014

  Actual Average (KLAS) Record (KLAS)
Temperature  
Mean Temperature 70 °F 65 °F  
Max Temperature 80 °F 76 °F 98 °F (1989)
Min Temperature 60 °F 54 °F 36 °F (1939)
Degree Days  
Heating Degree Days 0 3  
Month to date heating degree days 24  
Since 1 July heating degree days 1904  
Cooling Degree Days 5 3  
Month to date cooling degree days 16  
Year to date cooling degree days 47  
Growing Degree Days 20 (Base 50)    
Moisture  
Dew Point 23 °F    
Average Humidity 18    
Maximum Humidity 29    
Minimum Humidity 10    
Precipitation  
Precipitation 0.00 in 0.00 in 0.35 in (1958)
Month to date precipitation 0.05  
Year to date precipitation 1.79  
Snow  
Snow 0.00 in 0.00 in 0.00 in ()
Month to date snowfall 0.0  
Since 1 July snowfall 0.3  
Snow Depth -    
Sea Level Pressure  
Sea Level Pressure 30.17 in    
Wind  
Wind Speed 11 mph (NNE)    
Max Wind Speed 17 mph    
Max Gust Speed 26 mph    
Visibility 10 miles    
Events Thunderstorm    
T = Trace of Precipitation, MM = Missing Value Source: NWS Daily Summary

Daily Weather History Graph

Daily Weather History Graph

Search for Another Location

Airport:

Trip Planner

Search our weather history database for the weather conditions in past years. The results will help you decide how hot, cold, wet, or windy it might be!

Date:

Astronomy

Apr. 07, 2014 Rise Set
Actual Time 6:17 AM PDT 7:06 PM PDT
Civil Twilight 5:51 AM PDT 7:32 PM PDT
Nautical Twilight 5:20 AM PDT 8:03 PM PDT
Astronomical Twilight 4:48 AM PDT 8:35 PM PDT
Moon 12:21 PM PDT (4/7) 1:41 AM PDT (4/7)
Length of Visible Light 13h 41m
Length of Day
12h 49m
First Quarter, 54% of the Moon is Illuminated
Apr 7
First Quarter
Apr 15
Full
Apr 22
Last Quarter
Apr 28
New
May 6
First Quarter

Hourly Weather History & Observations

Time (PDT) Temp. Dew Point Humidity Pressure Visibility Wind Dir Wind Speed Gust Speed Precip Events Conditions
12:15 AM 66.2 °F 23.0 °F 19% 30.10 in 10.0 mi North 8.1 mph - N/A   Clear
12:35 AM 68.0 °F 21.2 °F 17% 30.10 in 10.0 mi North 13.8 mph - N/A   Clear
12:55 AM 68.0 °F 21.2 °F 17% 30.11 in 10.0 mi NNW 10.4 mph - N/A   Clear
1:15 AM 66.2 °F 23.0 °F 19% 30.11 in 10.0 mi North 10.4 mph - N/A   Clear
1:35 AM 66.2 °F 23.0 °F 19% 30.12 in 10.0 mi North 10.4 mph - N/A   Clear
1:55 AM 68.0 °F 23.0 °F 18% 30.12 in 10.0 mi North - - N/A   Clear
2:15 AM 68.0 °F 23.0 °F 18% 30.12 in 10.0 mi North 16.1 mph - N/A   Clear
2:35 AM 66.2 °F 23.0 °F 19% 30.13 in 10.0 mi North 10.4 mph - N/A   Clear
2:55 AM 66.2 °F 23.0 °F 19% 30.12 in 10.0 mi North 16.1 mph - N/A   Clear
3:15 AM 68.0 °F 23.0 °F 18% 30.12 in 10.0 mi North 17.3 mph 26.5 mph N/A   Clear
3:35 AM 66.2 °F 24.8 °F 21% 30.13 in 10.0 mi NNE 12.7 mph 19.6 mph N/A   Clear
3:55 AM 66.2 °F 24.8 °F 21% 30.13 in 10.0 mi NNE 12.7 mph - N/A   Clear
4:15 AM 64.4 °F 24.8 °F 22% 30.13 in 10.0 mi North 10.4 mph - N/A Thunderstorm Clear
4:35 AM 66.2 °F 24.8 °F 21% 30.14 in 10.0 mi North 11.5 mph 18.4 mph N/A   Clear
5:15 AM 64.4 °F 24.8 °F 22% 30.16 in 10.0 mi NNE 12.7 mph - N/A   Clear
5:35 AM 64.4 °F 24.8 °F 22% 30.17 in 10.0 mi North 8.1 mph 13.8 mph N/A   Clear
5:55 AM 62.6 °F 26.6 °F 26% 30.18 in 10.0 mi North 8.1 mph 15.0 mph N/A   Clear
6:15 AM 60.8 °F 24.8 °F 25% 30.19 in 10.0 mi North 9.2 mph - N/A   Clear
6:35 AM 62.6 °F 24.8 °F 24% 30.20 in 10.0 mi North 12.7 mph - N/A   Clear
6:55 AM 62.6 °F 26.6 °F 26% 30.20 in 10.0 mi North 15.0 mph - N/A   Clear
7:15 AM 64.4 °F 26.6 °F 24% 30.21 in 10.0 mi North 15.0 mph - N/A   Clear
7:35 AM 64.4 °F 26.6 °F 24% 30.22 in 10.0 mi North 15.0 mph - N/A   Clear
7:55 AM 66.2 °F 26.6 °F 23% 30.22 in 10.0 mi North 13.8 mph - N/A   Clear
8:15 AM 68.0 °F 26.6 °F 21% 30.22 in 10.0 mi North 17.3 mph 23.0 mph N/A   Clear
8:35 AM 68.0 °F 24.8 °F 20% 30.22 in 10.0 mi North 17.3 mph 23.0 mph N/A   Clear
8:55 AM 69.8 °F 24.8 °F 18% 30.23 in 10.0 mi NNW 12.7 mph 23.0 mph N/A   Clear
9:15 AM 69.8 °F 24.8 °F 18% 30.24 in 10.0 mi North 15.0 mph - N/A   Clear
9:35 AM 71.6 °F 26.6 °F 19% 30.25 in 10.0 mi NNW 11.5 mph 17.3 mph N/A Thunderstorm Clear
9:55 AM 71.6 °F 24.8 °F 17% 30.26 in 10.0 mi North 10.4 mph 18.4 mph N/A   Clear
10:15 AM 73.4 °F 24.8 °F 16% 30.25 in 10.0 mi North 15.0 mph 23.0 mph N/A   Clear
10:35 AM 73.4 °F 24.8 °F 16% 30.25 in 10.0 mi North 13.8 mph 21.9 mph N/A   Clear
10:55 AM 75.2 °F 24.8 °F 15% 30.25 in 10.0 mi NNE 17.3 mph 25.3 mph N/A   Clear
11:15 AM 75.2 °F 23.0 °F 14% 30.24 in 10.0 mi NNE 17.3 mph - N/A Thunderstorm Clear
11:35 AM 75.2 °F 23.0 °F 14% 30.24 in 10.0 mi NNE 12.7 mph 20.7 mph N/A   Clear
11:55 AM 77.0 °F 23.0 °F 13% 30.23 in - NE 12.7 mph - N/A   Clear
12:15 PM 77.0 °F 21.2 °F 12% 30.22 in 10.0 mi North 9.2 mph 21.9 mph N/A   Clear
12:35 PM 77.0 °F 23.0 °F 13% 30.22 in 10.0 mi North 9.2 mph 17.3 mph N/A   Clear
1:15 PM 78.8 °F 21.2 °F 12% 30.21 in 10.0 mi North 5.8 mph 15.0 mph N/A   Clear
1:35 PM 78.8 °F 21.2 °F 12% 30.19 in 10.0 mi NNE 16.1 mph - N/A   Clear
1:55 PM 78.8 °F 21.2 °F 12% 30.19 in 10.0 mi NNE 12.7 mph 18.4 mph N/A   Clear
2:15 PM 78.8 °F 21.2 °F 12% 30.18 in 10.0 mi NNE 11.5 mph - N/A Thunderstorm Clear
2:35 PM 78.8 °F 21.2 °F 12% 30.17 in 8.0 mi NE 15.0 mph 21.9 mph N/A   Clear
2:55 PM 80.6 °F 19.4 °F 10% 30.16 in 10.0 mi NNE 13.8 mph - N/A   Clear
3:15 PM 80.6 °F 19.4 °F 10% 30.15 in 10.0 mi ENE 9.2 mph 16.1 mph N/A   Clear
3:35 PM 80.6 °F 19.4 °F 10% 30.14 in 10.0 mi NE 10.4 mph 17.3 mph N/A   Clear
3:55 PM 80.6 °F 19.4 °F 10% 30.14 in 10.0 mi NE 12.7 mph - N/A Thunderstorm Clear
4:15 PM 80.6 °F 19.4 °F 10% 30.13 in 10.0 mi NE 11.5 mph - N/A   Clear
4:35 PM 80.6 °F 17.6 °F 10% 30.13 in 10.0 mi NE 9.2 mph 15.0 mph N/A   Clear
4:55 PM 80.6 °F 17.6 °F 10% 30.13 in 10.0 mi NE 6.9 mph - N/A   Clear
5:15 PM 80.6 °F 17.6 °F 10% 30.13 in 10.0 mi NE 8.1 mph 13.8 mph N/A   Clear
5:35 PM 80.6 °F 19.4 °F 10% 30.13 in 10.0 mi NE 8.1 mph - N/A   Clear
5:55 PM 80.6 °F 19.4 °F 10% 30.12 in 10.0 mi NE 9.2 mph - N/A   Clear
6:15 PM 80.6 °F 19.4 °F 10% 30.12 in 10.0 mi NE 8.1 mph - N/A   Clear
6:35 PM 78.8 °F 19.4 °F 11% 30.12 in 10.0 mi Calm Calm - N/A   Clear
6:55 PM 77.0 °F 23.0 °F 13% 30.12 in 10.0 mi NE 6.9 mph - N/A   Clear
7:15 PM 75.2 °F 23.0 °F 14% 30.12 in 10.0 mi NNE 6.9 mph - N/A   Clear
7:35 PM 71.6 °F 24.8 °F 17% 30.12 in 10.0 mi NE 3.5 mph - N/A   Clear
7:55 PM 69.8 °F 26.6 °F 20% 30.13 in 10.0 mi NE 4.6 mph - N/A   Clear
8:15 PM 68.0 °F 30.2 °F 24% 30.14 in 10.0 mi NE 5.8 mph - N/A   Clear
8:35 PM 66.2 °F 28.4 °F 24% 30.14 in 10.0 mi NNE 4.6 mph - N/A   Clear
8:55 PM 66.2 °F 28.4 °F 24% 30.15 in 10.0 mi North 4.6 mph - N/A   Clear
9:15 PM 66.2 °F 26.6 °F 23% 30.15 in 10.0 mi North 4.6 mph - N/A   Clear
9:35 PM 66.2 °F 26.6 °F 23% 30.15 in 10.0 mi North 5.8 mph - N/A   Clear
9:55 PM 64.4 °F 28.4 °F 26% 30.15 in 10.0 mi NNW 3.5 mph - N/A   Clear
10:15 PM 64.4 °F 21.2 °F 19% 30.15 in 10.0 mi Calm Calm - N/A   Clear
10:35 PM 64.4 °F 24.8 °F 22% 30.16 in - Calm Calm - N/A   Clear
10:55 PM 60.8 °F 28.4 °F 29% 30.16 in 10.0 mi Calm Calm - N/A   Clear
11:15 PM 64.4 °F 21.2 °F 19% 30.16 in 10.0 mi Calm Calm - N/A Thunderstorm Clear
11:35 PM 62.6 °F 24.8 °F 24% 30.16 in 10.0 mi Calm Calm - N/A   Clear
11:55 PM 66.2 °F 21.2 °F 18% 30.16 in 10.0 mi Calm Calm - N/A   Clear